Regional Weather Roundup
Issued by NWS

Home | Current Version | Previous Version | Text Only | Print | Product List | Glossary On
Versions: 1 2 3 4 5 6 7 8 9 10 11 12 13 14 15 16 17 18 19 20 21 22 23 24 25 26 27 28 29 30 31 32 33 34 35 36 37 38 39 40 41 42 43 44 45 46 47 48 49 50
000
ASUS44 KFWD 020815
RWRTX
NORTH TEXAS HOURLY WEATHER ROUNDUP
NATIONAL WEATHER SERVICE FORT WORTH TX
300 AM CDT THU JUL 02 2015

NOTE: "FAIR" INDICATES FEW OR NO CLOUDS BELOW 12,000 FEET WITH NO
SIGNIFICANT WEATHER AND/OR OBSTRUCTIONS TO VISIBILITY.

TXZ118-119-020900-
DALLAS/FORT WORTH METROPLEX

CITY           SKY/WX    TMP DP  RH WIND       PRES   REMARKS
DFW AIRPORT    PTCLDY    78  68  71 S14       29.94R
DALLAS LOVE    MOCLDY    78  69  73 SW9G18    29.95R
FTW MEACHAM    PTCLDY    77  68  73 S13       29.93S
DAL-EXECUTIVE  PTCLDY    75  69  81 VRB7      29.95R
FTW-ALLIANCE   MOCLDY    76  68  76 SW9       29.93S
FTW-NAS-JRB    PTCLDY    77  69  76 S12       29.94S
ARLINGTON      PTCLDY    76  68  76 S9        29.95S
$$

TXZ091>094-102>105-117-120-121-131>134-020900-
NORTH CENTRAL TEXAS

CITY           SKY/WX    TMP DP  RH WIND       PRES   REMARKS
DENTON         CLEAR     76  69  79 S10       29.93S
MCKINNEY       PTCLDY    75  69  81 S9        29.95R
TERRELL        PTCLDY    73  70  90 S8        29.97R
$$

TXZ083>090-098>101-113>116-127>130-139>142-154-155-020900-
WESTERN NORTH TEXAS

CITY           SKY/WX    TMP DP  RH WIND       PRES   REMARKS
WICHITA FALLS  CLEAR     79  68  69 SW20      29.88F
ABILENE        CLEAR     74  65  73 S16       29.97F
ABILENE-DYESS  CLEAR     74  66  77 S12       29.95F
MINERAL WELLS  CLEAR     76  67  73 S10       29.93
BROWNWOOD      CLEAR     72  66  83 S7        30.00F
$$

TXZ143>147-156>162-174-175-020900-
CENTRAL TEXAS

CITY           SKY/WX    TMP DP  RH WIND       PRES   REMARKS
WACO           CLEAR     73  70  90 S12       29.97F
WACO-MCGREGOR  CLEAR     72  66  83 S6        30.00S
CORSICANA      PTCLDY    73  69  87 S8        29.99R
TEMPLE         CLEAR     72  66  83 S8        29.98F
KILLEEN        CLEAR     71  69  94 S10       29.99S
KILLEEN-SKYLRK CLEAR     72  64  78 S8        29.99F
FORT HOOD      CLEAR     72  69  90 S10       29.98F
LAMPASAS       CLEAR     71  68  92 SW3       30.00S
$$

TXZ095>097-106>112-122>126-135>138-148>153-164>167-020900-
EAST TEXAS

CITY           SKY/WX    TMP DP  RH WIND       PRES   REMARKS
PARIS          PTCLDY    75  64  69 S12       29.95S
TYLER          CLEAR     74  67  78 S12       29.98R
LONGVIEW       PTCLDY    77  70  79 S10       29.98R
NACOGDOCHES    CLEAR    N/A N/A N/A S6        30.00S
LUFKIN         CLEAR     73  69  87 S5        30.02R
$$

SUPPLEMENTAL OBSERVATIONS (CENTRAL)

CITY           SKY/WX    TMP DP  RH WIND       PRES   REMARKS
LAKE TEXOMA      N/A     79  68  69 SW14        N/A
CADDO GRASSLND   N/A     77  70  78 S13         N/A
PAT MAYSE LAKE   N/A     79  73  83 S14         N/A
GREENVILLE       N/A     75  68  78 S9          N/A
CEDAR HILL       N/A     73  68  83 S6G14       N/A
ATHENS           N/A     73  66  78 SW6         N/A
LAKE LIMESTONE   N/A     70  66  88 S5          N/A
MCGREGOR         N/A     72  68  88 SW5         N/A
TEMPLE           N/A     72  68  88 S6          N/A
$$

SUPPLEMENTAL OBSERVATIONS (WEST)

CITY           SKY/WX    TMP DP  RH WIND       PRES   REMARKS
MILLERS CREEK    N/A     79  68  69 SW13        N/A
POSSUM KINGDOM   N/A     77  64  65 SW14G22     N/A
LBJ GRASSLAND    N/A     75  66  73 S8          N/A
GRANBURY         N/A     75  66  73 S7          N/A
COMANCHE         N/A     72  63  73 SW12        N/A
HAMBY            N/A     73  64  73 S12         N/A
IVIE RESERVOIR   N/A     72  66  83 S5          N/A
COLORADO BEND    N/A     70  66  88 SW2         N/A
$$

SUPPLEMENTAL OBSERVATIONS (EAST)

CITY           SKY/WX    TMP DP  RH WIND       PRES   REMARKS
TEXARKANA        N/A     73  66  78 S3          N/A
LINDEN           N/A     72  66  83 S2          N/A
CADDO LAKE       N/A     73  70  88 SW2         N/A
GILMER           N/A     73  66  78 SW3         N/A
HENDERSON        N/A     72  68  88 SW9         N/A
LUFKIN           N/A     70  66  88 MISG        N/A
N SABINE NF      N/A     73  68  83 MISG        N/A
S SABINE NF      N/A     72  68  88 CALM        N/A
$$

SUPPLEMENTAL OBSERVATIONS ARE A COLLECTION OF AUTOMATED INSTRUMENTS
THAT ARE MAINTAINED BY A VARIETY OF FEDERAL AND STATE AGENCIES.
CERTAIN ELEMENTS...SUCH AS HUMIDITY VALUES AND SUSTAINED WIND
SPEEDS...MAY BE APPROXIMATED.



USA.gov is the U.S. government's official web portal to all federal, state and local government web resources and services.